Historical Weather Data

Soule Park Golf Course
1033 East Ojai Ave
Ojai, CA 93023
Date ET
(Inches)
Rain
(Inches)
Temp °F
Humidity
Avg
Wind MPH
Avg
Solar Wm2
Avg
High Ave Low
1/1/17 0.05 0.00 61.1 46.0 33.3 82 1.9 94
1/2/17 0.02 0.00 53.8 47.6 42.5 85 1.1 36
1/3/17 0.04 1.27 57.7 47.2 39.5 83 1.3 69
1/4/17 0.02 0.41 54.3 49.4 42.2 95 0.5 43
1/5/17 0.03 0.17 63.2 54.2 43.4 94 0.6 67
1/6/17 0.05 0.00 65.8 49.2 38.1 77 1.1 102
1/7/17 0.01 0.56 58.7 52.1 46.8 94 0.8 28
1/8/17 0.05 0.05 73.1 57.8 47.8 76 1.3 79
1/9/17 0.03 0.88 62.3 53.9 48.9 93 1.7 65
1/10/17 0.03 0.36 61.6 51.6 42.9 93 1.6 69
1/11/17 0.05 0.42 61.6 55.2 50.6 88 2.0 96
1/12/17 0.02 0.40 56.5 49.6 39.7 95 0.7 49
1/13/17 0.05 0.00 62.5 45.9 33.9 82 1.6 88
1/14/17 0.06 0.00 72.1 51.2 37.5 71 2.2 118
1/15/17 0.05 0.00 65.5 49.4 35.0 78 2.1 111
1/16/17 0.05 0.00 66.9 52.2 39.9 79 2.0 111
1/17/17 0.06 0.00 69.0 48.9 35.7 69 2.3 116
1/18/17 0.04 0.12 58.8 46.8 34.1 84 2.0 82
1/19/17 0.05 0.80 60.5 51.4 45.6 89 2.5 114
1/20/17 0.02 2.07 59.5 49.2 43.5 93 2.3 63
1/21/17 0.06 0.00 60.5 48.4 37.9 86 2.3 122
1/22/17 0.01 2.75 55.1 50.2 46.4 99 2.1 12
1/23/17 0.06 0.65 58.4 49.2 40.2 88 2.3 124
1/24/17 0.00 0.00 59.7 51.9 39.3 82 2.1 3
1/25/17 32.0 32.0 32.0 0.0
1/26/17 32.0 32.0 32.0 0.0
1/27/17 32.0 32.0 32.0 0.0
1/28/17 32.0 32.0 32.0 0.0
1/29/17 32.0 32.0 32.0 0.0
1/30/17 32.0 32.0 32.0 0.0
1/31/17 32.0 32.0 32.0 0.0